Location: Azul
(36.7830°S, 59.8500°W)
Time: 12:40:01
(UTC-03:00)

BEESAT 3 - Pass Details

Date: 25 October 2021
Orbit: 477 x 511 km, 64.9° (Epoch: 28 November)

Event Time Altitude Azimuth Distance (km) Brightness Sun altitude
Rises 20:04:12 0° 299° (WNW) 2,604 ? -8.1°
Reaches altitude 10° 20:06:44 10° 283° (WNW) 1,721 ? -8.6°
Maximum altitude 20:09:45 22° 232° (SW) 1,162 ? -9.1°
Drops below altitude 10° 20:12:46 10° 180° (S) 1,721 ? -9.7°
Sets 20:15:19 0° 163° (SSE) 2,604 ? -10.2°
